This is the latest recevied weather packets stored in our database for station/object K0QED. If no packets are shown the sender has not sent any weather packets the latest 10 day(s).
| Time | Temp. | Humidity | Pressure | Rain* | Wind** | Luminosity | Snow |
|---|---|---|---|---|---|---|---|
| 1777585553 | 0.56° C | 99% | 1021.6 hPa | 0 mm | - | 49 W/m² | - |
| 1777585249 | 0.56° C | 99% | 1021.6 hPa | 0 mm | - | 39 W/m² | - |
| 1777584944 | 0.56° C | 98% | 1021.5 hPa | 1.78 mm | - | 36 W/m² | - |
| 1777584641 | 0.56° C | 98% | 1021.6 hPa | 1.78 mm | - | 46 W/m² | - |
| 1777584338 | 1.11° C | 98% | 1021.4 hPa | 0 mm | - | 58 W/m² | - |
| 1777584034 | 0.56° C | 99% | 1021.7 hPa | 0 mm | - | 56 W/m² | - |
| 1777583729 | 0.56° C | 98% | 1021.7 hPa | 1.27 mm | - | 56 W/m² | - |
| 1777583428 | 1.11° C | 98% | 1021.9 hPa | 1.27 mm | - | 57 W/m² | - |
| 1777583127 | 1.11° C | 98% | 1021.5 hPa | 0 mm | - | 64 W/m² | - |
| 1777582823 | 1.11° C | 98% | 1021.4 hPa | 1.78 mm | - | 83 W/m² | - |
| 1777582520 | 1.11° C | 98% | 1021.5 hPa | 1.78 mm | - | 96 W/m² | - |
| 1777582215 | 1.11° C | 98% | 1021.6 hPa | 1.27 mm | - | 121 W/m² | - |
| 1777581913 | 1.11° C | 99% | 1021.6 hPa | 1.27 mm | - | 144 W/m² | - |
| 1777581609 | 1.11° C | 98% | 1021.6 hPa | 1.78 mm | - | 122 W/m² | - |
| 1777581303 | 1.11° C | 99% | 1021.4 hPa | 1.27 mm | - | 164 W/m² | - |
| 1777580998 | 1.11° C | 99% | 1021.5 hPa | 1.27 mm | - | 135 W/m² | - |
| 1777580697 | 1.11° C | 99% | 1021.9 hPa | 1.78 mm | - | 147 W/m² | - |
| 1777580394 | 1.11° C | 99% | 1021.4 hPa | 3.56 mm | - | 130 W/m² | - |
| 1777580090 | 0.56° C | 99% | 1021.5 hPa | 1.78 mm | - | 177 W/m² | - |
| 1777579787 | 0.56° C | 99% | 1021.7 hPa | 1.27 mm | - | 173 W/m² | - |
| 1777579484 | 0.56° C | 99% | 1021.6 hPa | 1.27 mm | - | 175 W/m² | - |
| 1777579180 | 0.56° C | 99% | 1021.7 hPa | 1.78 mm | - | 162 W/m² | - |
| 1777578874 | 0.56° C | 99% | 1021.6 hPa | 1.78 mm | - | 121 W/m² | - |
| 1777578571 | 0.56° C | 99% | 1021.7 hPa | 1.78 mm | - | 118 W/m² | - |
| 1777578265 | 0.56° C | 99% | 1021.7 hPa | 1.27 mm | - | 104 W/m² | - |
* Rain latest hour (hover to see other rain measurements)
** Current wind speed in m/s (hover to see current wind gust speed)